Regional Weather Roundup
Issued by NWS

Home | Current Version | Previous Version | Text Only | Print | Product List | Glossary Off
Versions: 1 2 3 4 5 6 7 8 9 10 11 12 13 14 15 16 17 18 19 20 21 22 23 24 25 26 27

000
ASUS45 KTFX 261010
RWRMT
MONTANA REGIONAL WEATHER ROUNDUP
NATIONAL WEATHER SERVICE GREAT FALLS MT
400 AM MDT MON JUN 26 2017

NOTE: "FAIR" INDICATES FEW OR NO CLOUDS BELOW 12000 FEET WITH NO
SIGNIFICANT WEATHER AND/OR OBSTRUCTIONS TO VISIBILITY.

MTZ001>007-043-261100-
WEST OF THE DIVIDE

CITY           SKY/WX    TMP DP  RH WIND       PRES   REMARKS
KALISPELL      PTCLDY    49  46  90 NW3       29.99F
MISSOULA       CLEAR     55  48  77 CALM      30.05S
BUTTE          CLEAR     51  38  60 CALM      30.21F
MULLAN PASS    PTCLDY    64  37  36 S10       30.14F
ANACONDA         N/A     54  39  58 S8        30.17
DEER LODGE       N/A     54  43  66 CALM      30.17S
EUREKA           N/A     55  45  67 CALM      29.96F
HAMILTON         N/A     61  45  55 S6        30.06F
$$

MTZ008-052>055-261100-
SOUTHWEST MONTANA

CITY           SKY/WX    TMP DP  RH WIND       PRES   REMARKS
BOZEMAN        CLEAR     47  41  80 SE3       30.17S
DILLON         CLOUDY    52  36  54 S5        30.19F
W YELLOWSTONE  CLOUDY    36  34  93 CALM      30.34S
ENNIS          CLEAR     48  37  66 CALM      30.26F
THREE FORKS      N/A     46  42  86 CALM      30.13F
$$

MTZ009-010-012-014-046-048-049-054-261100-
EAST SLOPES AND CENTRAL MONTANA

CITY           SKY/WX    TMP DP  RH WIND       PRES   REMARKS
CUT BANK       PTCLDY    54  40  59 E7        30.05F
GREAT FALLS    CLEAR     55  41  59 N3        30.08S
MALMSTROM AFB  CLOUDY    54  43  66 S9        30.07F
HELENA         CLEAR     56  43  61 CALM      30.11F
CHOTEAU          N/A     50  43  76 S6        30.09F
$$

MTZ011-013-016-021-045-047-050-051-261100-
NORTH CENTRAL MONTANA

CITY           SKY/WX    TMP DP  RH WIND       PRES   REMARKS
HAVRE          CLEAR     54  39  57 E10       30.05F
LEWISTOWN      CLEAR     49  34  56 SE8       30.14F
N BAR RANCH      N/A     52  28  40 CALM      30.20F
CHINOOK          N/A     54  41  62 E12       30.08F
$$

MTZ017>020-022>027-061-062-261100-
NORTHEAST MONTANA

CITY           SKY/WX    TMP DP  RH WIND       PRES   REMARKS
GLASGOW        CLEAR     54  40  59 E13       30.15F
JORDAN           N/A     45  29  53 CALM      30.15F
SIDNEY         CLEAR     48  39  71 CALM      30.23S
WOLF POINT     CLEAR     48  39  71 E7        30.20S
MALTA          CLEAR     54  41  62 NE9       30.13F
PLENTYWOOD       N/A     50  43  76 CALM      30.23S
POPLAR           N/A     46  41  81 N5        30.21S
$$

MTZ028>42-056>058-261100-
SOUTHCENTRAL AND SOUTHEAST MONTANA

CITY           SKY/WX    TMP DP  RH WIND       PRES   REMARKS
BAKER          CLEAR     47  37  68 SE9       30.22F
BILLINGS       CLEAR     59  35  40 SW3       30.15F
LIVINGSTON     CLEAR     45  40  82 NW6       30.20F
MILES CITY     CLEAR     56  34  43 SE8       30.17S
BIG TIMBER     CLEAR     50  39  66 W7        30.22S
ROUNDUP          N/A     50  28  42 W6        30.06F
$$

REGIONAL REPORTS...DAKOTAS

CITY           SKY/WX    TMP DP  RH WIND       PRES   REMARKS
WILLISTON      CLEAR     48  42  80 CALM      30.24S
MINOT          CLEAR     45  39  79 SW7       30.24S
DICKINSON      CLEAR     44  40  85 SE10      30.23S
BEACH            N/A     43  39  87 S7        30.25F
CROSBY           N/A     43  43 100 S7        30.25S
TIOGA            N/A     41  41 100 CALM      30.26S
WATFORD CITY     N/A     41  39  93 CALM      30.24S
BISMARCK       CLEAR     43  40  89 CALM      30.26R
GRAND FORKS    CLEAR     43  41  93 W5        30.20R
FARGO          CLEAR     43  39  86 CALM      30.21S
BUFFALO SD       N/A     48  39  71 E7        30.17F
RAPID CITY     CLEAR     44  36  73 CALM      30.25F
$$

REGIONAL REPORTS...WYOMING/IDAHO/WASHINGTON

CITY           SKY/WX    TMP DP  RH WIND       PRES   REMARKS
GILLETTE       CLEAR     50  32  50 S6        30.23F
SHERIDAN       CLEAR     47  39  74 CALM      30.19S
BUFFALO WY     CLEAR     57  34  41 S6        30.24F
CODY           CLEAR     52  37  56 CALM      30.24S
YELLOWSTONE LA   N/A     37  34  89 CALM      30.43F
IDAHO FALLS    CLEAR     51  47  86 N6        30.16F
SALMON         CLEAR     52  43  71 S5        30.11S
BOISE          CLEAR     71  44  37 VRB7      29.98R
SPOKANE        PTCLDY    67  49  52 CALM      29.89F
$$

REGIONAL REPORTS...ALBERTA

CITY           SKY/WX    TMP DP  RH WIND       PRES   REMARKS
EDMONTON       CLEAR     61  46  59 S15G23    29.89F
CALGARY        MOCLDY    57  46  67 S8        29.95F
LETHBRIDGE     PTCLDY    64  41  42 S12G22    29.96F
MEDICINE HAT   CLEAR     59  41  51 NE5G17    30.01F
CARDSTON         N/A     59  43  55 S6          N/A
MILK RIVER       N/A     57  41  54 S10         N/A
ONEFOUR          N/A     52  37  58 E13         N/A
$$

REGIONAL REPORTS...SASKATCHEWAN

CITY           SKY/WX    TMP DP  RH WIND       PRES   REMARKS
SWIFT CURRENT  CLEAR     48  39  71 SE13      30.16F
REGINA         PTCLDY    43  36  75 E8        30.23S
SASKATOON      PTCLDY    50  39  66 S12G17    30.19F
CYPRESS HILLS    N/A     50  36  57 SE10G17     N/A
VAL MARIE        N/A     48  37  66 E5          N/A
ROCKGLEN         N/A     48  39  71 SE10        N/A
ASSINIBOIA       N/A     57  45  62 SE13        N/A
$$




USA.gov is the U.S. government's official web portal to all federal, state and local government web resources and services.